Main page
Satellite images Climate Cyclones Lightning AirportsFAQ Languages Contact Newsletter About
Weather : Europe Africa North America South America Asia Australia-Oceania Others

bangkok-th, Bangkok-Suvarnabhumi, Suvarnabhumi Airport

48455

latitude: , longitude: Thailand, elevation: 13-40-52N m


METAR: VTBS 211530Z 13010KT 110V180 9999 FEW020CB BKN100 30/23 Q1011 NOSIG